Regional Weather Roundup
Issued by NWS

Home | Current Version | Previous Version | Text Only | Print | Product List | Glossary Off
Versions: 1 2 3 4 5 6 7 8 9 10 11 12 13 14 15 16 17 18 19 20 21 22 23 24 25 26 27 28 29 30 31 32 33 34 35 36 37 38 39 40 41 42 43 44 45 46 47 48 49 50

935
ASUS45 KCYS 302010
RWRWY

WYOMING REGIONAL WEATHER ROUNDUP
NATIONAL WEATHER SERVICE CHEYENNE WY
200 PM MDT SAT APR 30 2016

NOTE:  "FAIR" INDICATES FEW OR NO CLOUDS BELOW 12,000 FEET
WITH NO SIGNIFICANT WEATHER AND/OR OBSTRUCTIONS TO VISIBILITY.

WYZ001-302100-
YELLOWSTONE NATIONAL PARK

CITY           SKY/WX    TMP DP  RH WIND       PRES   REMARKS
LK YELLOWSTONE   N/A     40  21  46 MISG      30.11R
W YELLOWSTONE  NOT AVBL

$$
WYZ002>013-054>058-071-098>099-302100-
NORTHERN WYOMING

CITY           SKY/WX    TMP DP  RH WIND       PRES   REMARKS
JACKSON        PTSUNNY   50  27  40 N8        30.01
CODY           PTSUNNY   45  36  70 N16G25    30.14R
GREYBULL       CLOUDY    55  30  38 NW9       30.07R
WORLAND        CLOUDY    46  41  82 S9        30.10R
SHERIDAN       CLOUDY    46  35  65 CALM      30.19S
BUFFALO          N/A    N/A N/A N/A MISG      30.19R
GILLETTE       CLOUDY    44  33  65 NE14      30.14S
HULETT         CLOUDY    45  34  65 NE10G18   30.15R
NEWCASTLE      MOCLDY    45  28  53 E8        30.10S

$$
WYZ014>020-022>026-101>103-302100-
CENTRAL WYOMING

CITY           SKY/WX    TMP DP  RH WIND       PRES   REMARKS
BIG PINEY      LGT RAIN  42  29  59 MISG      30.04S
PINEDALE       CLOUDY    48  23  37 NE17      30.03S
DUBOIS         CLOUDY    43  32  65 E21G26    30.07S
LANDER         LGT RAIN  37  34  89 E12       30.11R FOG     WCI  29
RIVERTON       LGT RAIN  40  36  86 NE10      30.12S WCI  33
CASPER         LGT SNOW  36  33  89 E10       30.11R FOG     WCI  28
DOUGLAS        LGT RAIN  37  34  89 NE7       30.11R WCI  32

$$
WYZ021-027>030-104>119-302100-
SOUTHERN WYOMING

CITY           SKY/WX    TMP DP  RH WIND       PRES   REMARKS
EVANSTON       PTSUNNY   44  27  51 E17G24    30.02S
KEMMERER         N/A     43  30  61 E13G20    30.04S
FORT BRIDGER   LGT SNOW  36  36 100 E9G18     30.08R WCI  29
ROCK SPRINGS   FLURRIES  39  32  76 NE23G29   30.05R WCI  28
DIXON          CLOUDY    41  25  52 N23G30    30.01R
RAWLINS        FOG       33  30  88 NE17G24   30.06R VSB 1/4 WCI  22
SARATOGA       MOCLDY    34  28  80 NE17G24   30.04S WCI  23
LARAMIE        LGT SNOW  30  26  85 N14       30.02R FOG     WCI  19
CHEYENNE       LGT SNOW  32  29  88 N24G31    30.00R VSB 3/4 WCI  19
TORRINGTON     LGT RAIN  37  34  89 N17G26    30.04R WCI  27
PINE BLUFFS    LGT SNOW  32  32 100 N25G32    29.98R WCI  19

$$




USA.gov is the U.S. government's official web portal to all federal, state and local government web resources and services.